Flag for Gambia Weather past 2 weeks in Banjul, Gambia

Now
86 °F

Scattered clouds.


Feels Like: 99 °F
Forecast: 80 / 87 °F
Wind: 10 mph from West

Location: Banjul / Yundum

Current Time: Sep 30, 2014 at 10:29:55 AM

Latest Report: Sep 30, 2014 at 10:00 AM


Visibility: N/A

Pressure: 29.89 "Hg

Humidity: 79%

Dew point: 79 °F

Location of BanjulLocation

Historic Weather in Banjul — Graph

°F

Banjul temperature yesterday

Maximum temperature yesterday: 91 °F (at 2:00 PM)
Minimum temperature yesterday: 79 °F (at 5:00 AM)
Average temperature yesterday: 84 °F

Past Weeks' High & Low Weather Summary

 TemperatureHumidityPressure
High91 °F (Sep 24, 2:00 PM)100% (Sep 15, 11:00 PM)29.98 "Hg (Sep 15, 11:00 PM)
Low72 °F (Sep 26, 3:00 AM)56% (Sep 28, 2:00 PM)29.77 "Hg (Sep 18, 5:00 PM)
Average81 °F85%29.88 "Hg
* Reported Sep 15 9:00 AM — Sep 30 9:00 AM, Banjul, Weather by CustomWeather, © 2014

Note: Actual official high and low records may vary slightly from our data, if they occured in-between our weather recording intervals... More about our weather records

Advertising

Banjul weather history for previous 24 hours

 ConditionsComfort  
Time TempWeatherWind HumidityBarometerVisibility
9:00 AM
Sep 30
84 °FPassing clouds.6 mph84%29.89 "HgN/A
8:00 AM81 °FScattered clouds.7 mph89%29.89 "HgN/A
7:00 AM79 °FScattered clouds.7 mph94%29.86 "Hg6 mi
6:00 AM79 °FPassing clouds.No wind94%29.86 "Hg6 mi
5:00 AM79 °FPassing clouds.No wind94%29.86 "Hg6 mi
4:00 AM79 °FPassing clouds.No wind94%29.86 "Hg6 mi
3:00 AM77 °FPassing clouds.No wind89%29.86 "HgN/A
2:00 AM79 °FPassing clouds.10 mph94%29.89 "HgN/A
1:00 AM79 °FPassing clouds.7 mph94%29.92 "HgN/A
12:00 AM79 °FPassing clouds.No wind94%29.92 "HgN/A
11:00 PM
Sep 29
81 °FPassing clouds.No wind89%29.92 "HgN/A
10:00 PM81 °FPassing clouds.No wind94%29.92 "HgN/A
9:00 PM81 °FPassing clouds.2 mph94%29.86 "HgN/A
8:00 PM82 °FPassing clouds.5 mph84%29.86 "HgN/A
7:00 PM84 °FPassing clouds.5 mph79%29.86 "HgN/A
6:00 PM90 °FScattered clouds.8 mph67%29.83 "HgN/A
5:00 PM90 °FScattered clouds.7 mph67%29.86 "HgN/A
4:26 PM91 °FThunderstorms. Partly sunny.6 mph71%N/AN/A
4:00 PM91 °FBroken clouds.7 mph67%29.86 "HgN/A
3:00 PM91 °FPartly sunny.9 mph63%29.89 "HgN/A
2:00 PM91 °FBroken clouds.12 mph63%29.89 "HgN/A
1:00 PM90 °FPartly sunny.9 mph67%29.89 "HgN/A
12:00 PM90 °FPartly sunny.12 mph67%29.89 "HgN/A
11:00 AM88 °FPartly sunny.7 mph70%29.89 "HgN/A
10:00 AM86 °FPartly sunny.7 mph75%29.89 "HgN/A
Weather by CustomWeather, © 2014

See weather overviewHow to use our weather pages